• In Deutschland
  • Länderverzeichnis
  • Für 7 Tage
  • Wassertemperatur
  • Satellitenkarten
  • Wetterkarte
  • Widgets
  • user-avatar
    Anmelden

    Stündliche Wetter Janina

    Heute, 15 Dezember, Freitag

    Zeit Temperatur Niederschläge Wind Luftdruck Luftfeuchtigkeit
    00:00 +5°C° 0,1 mm 2 m/S 686 mmHg 93%
    01:00 +5°C° 0,1 mm 2 m/S 686 mmHg 94%
    02:00 +5°C° 0,1 mm 2 m/S 686 mmHg 94%
    03:00 +5°C° 0,1 mm 2 m/S 686 mmHg 94%
    04:00 +6°C° 0,1 mm 2 m/S 686 mmHg 94%
    05:00 +5°C° 0 mm 2 m/S 686 mmHg 94%
    06:00 +5°C° 0 mm 2 m/S 686 mmHg 94%
    07:00 +5°C° 0 mm 2 m/S 685 mmHg 94%
    08:00 +6°C° 0 mm 2 m/S 686 mmHg 90%
    09:00 +8°C° 0 mm 2 m/S 686 mmHg 85%
    10:00 +9°C° 0 mm 3 m/S 686 mmHg 81%
    11:00 +9°C° 0,1 mm 3 m/S 686 mmHg 80%
    12:00 +9°C° 0,1 mm 3 m/S 685 mmHg 80%
    13:00 +9°C° 0,1 mm 3 m/S 685 mmHg 79%
    14:00 +9°C° 0,1 mm 3 m/S 685 mmHg 82%
    15:00 +8°C° 0,1 mm 3 m/S 684 mmHg 85%
    16:00 +7°C° 0,1 mm 3 m/S 684 mmHg 88%
    17:00 +7°C° 0,2 mm 3 m/S 684 mmHg 89%
    18:00 +7°C° 0,2 mm 3 m/S 684 mmHg 91%
    19:00 +7°C° 0,2 mm 3 m/S 684 mmHg 92%
    20:00 +7°C° 0,2 mm 3 m/S 684 mmHg 92%
    21:00 +7°C° 0,2 mm 3 m/S 684 mmHg 93%
    22:00 +7°C° 0,2 mm 3 m/S 684 mmHg 93%
    23:00 +7°C° 0,2 mm 3 m/S 684 mmHg 93%

    Morgen, 16 Dezember, Samstag

    Zeit Temperatur Niederschläge Wind Luftdruck Luftfeuchtigkeit
    00:00 +7°C° 0,2 mm 3 m/S 683 mmHg 94%
    01:00 +6°C° 0,2 mm 4 m/S 683 mmHg 94%
    02:00 +6°C° 0,3 mm 4 m/S 683 mmHg 94%
    03:00 +7°C° 0,3 mm 4 m/S 683 mmHg 94%
    04:00 +7°C° 0,3 mm 4 m/S 682 mmHg 95%
    05:00 +7°C° 0,2 mm 4 m/S 682 mmHg 95%
    06:00 +7°C° 0,2 mm 4 m/S 682 mmHg 95%
    07:00 +7°C° 0,2 mm 4 m/S 682 mmHg 95%
    08:00 +7°C° 0,2 mm 4 m/S 682 mmHg 90%
    09:00 +8°C° 0,2 mm 5 m/S 682 mmHg 85%
    10:00 +9°C° 0,2 mm 5 m/S 682 mmHg 80%
    11:00 +10°C° 1,3 mm 4 m/S 682 mmHg 83%
    12:00 +8°C° 1,3 mm 4 m/S 681 mmHg 86%
    13:00 +9°C° 1,3 mm 3 m/S 680 mmHg 89%
    14:00 +8°C° 2,9 mm 3 m/S 680 mmHg 91%
    15:00 +8°C° 2,9 mm 2 m/S 680 mmHg 92%
    16:00 +7°C° 2,9 mm 2 m/S 679 mmHg 94%
    17:00 +7°C° 1,8 mm 2 m/S 680 mmHg 94%
    18:00 +8°C° 1,8 mm 1 m/S 680 mmHg 95%
    19:00 +7°C° 1,8 mm 1 m/S 680 mmHg 95%
    20:00 +7°C° 0,9 mm 1 m/S 680 mmHg 95%
    21:00 +7°C° 0,9 mm 1 m/S 680 mmHg 95%
    22:00 +7°C° 0,9 mm 1 m/S 681 mmHg 94%
    23:00 +6°C° 0,4 mm 2 m/S 681 mmHg 94%

    übermorgen, 17 Dezember, Sonntag

    Zeit Temperatur Niederschläge Wind Luftdruck Luftfeuchtigkeit
    00:00 +6°C° 0,4 mm 2 m/S 681 mmHg 93%
    01:00 +6°C° 0,4 mm 2 m/S 681 mmHg 93%
    02:00 +5°C° 0,1 mm 2 m/S 681 mmHg 92%
    03:00 +5°C° 0,1 mm 2 m/S 681 mmHg 92%
    04:00 +4°C° 0,1 mm 2 m/S 681 mmHg 92%
    05:00 +4°C° 0 mm 2 m/S 682 mmHg 92%
    06:00 +3°C° 0 mm 2 m/S 682 mmHg 91%
    07:00 +4°C° 0 mm 1 m/S 683 mmHg 91%
    08:00 +4°C° 0 mm 2 m/S 683 mmHg 83%
    09:00 +5°C° 0 mm 2 m/S 684 mmHg 75%
    10:00 +6°C° 0 mm 2 m/S 684 mmHg 67%
    11:00 +6°C° 0,1 mm 2 m/S 684 mmHg 66%
    12:00 +6°C° 0,1 mm 2 m/S 684 mmHg 65%
    13:00 +7°C° 0,1 mm 2 m/S 684 mmHg 64%
    14:00 +6°C° 0,1 mm 2 m/S 684 mmHg 69%
    15:00 +5°C° 0,1 mm 2 m/S 685 mmHg 73%
    16:00 +5°C° 0,1 mm 1 m/S 685 mmHg 78%
    17:00 +5°C° 0 mm 1 m/S 685 mmHg 81%
    18:00 +4°C° 0 mm 1 m/S 685 mmHg 84%
    19:00 +3°C° 0 mm 1 m/S 686 mmHg 87%
    20:00 +3°C° 0 mm 1 m/S 686 mmHg 87%
    21:00 +3°C° 0 mm 1 m/S 687 mmHg 86%
    22:00 +2°C° 0 mm 1 m/S 687 mmHg 86%
    23:00 +2°C° 0 mm 1 m/S 687 mmHg 86%

    18 Dezember, Montag

    Zeit Temperatur Niederschläge Wind Luftdruck Luftfeuchtigkeit
    00:00 +2°C° 0 mm 1 m/S 688 mmHg 86%
    01:00 +2°C° 0 mm 1 m/S 688 mmHg 85%
    02:00 +1°C° 0 mm 1 m/S 688 mmHg 86%
    03:00 +1°C° 0 mm 1 m/S 688 mmHg 86%
    04:00 +1°C° 0 mm 1 m/S 688 mmHg 86%
    05:00 +1°C° 0 mm 1 m/S 688 mmHg 86%
    06:00 +1°C° 0 mm 1 m/S 689 mmHg 85%
    07:00 +1°C° 0 mm 1 m/S 689 mmHg 85%
    08:00 +2°C° 0 mm 1 m/S 689 mmHg 78%
    09:00 +3°C° 0 mm 1 m/S 690 mmHg 71%
    10:00 +4°C° 0 mm 1 m/S 690 mmHg 65%
    11:00 +4°C° 0,1 mm 2 m/S 690 mmHg 63%
    12:00 +4°C° 0,1 mm 2 m/S 690 mmHg 62%
    13:00 +4°C° 0,1 mm 2 m/S 689 mmHg 60%
    14:00 +3°C° 0,1 mm 2 m/S 689 mmHg 64%
    15:00 +2°C° 0,1 mm 2 m/S 689 mmHg 68%
    16:00 +2°C° 0,1 mm 2 m/S 689 mmHg 72%
    17:00 +1°C° 0 mm 2 m/S 689 mmHg 74%
    18:00 -1°C° 0 mm 2 m/S 689 mmHg 76%
    19:00 +1°C° 0 mm 1 m/S 689 mmHg 78%
    20:00 0°C° 0 mm 1 m/S 690 mmHg 77%
    21:00 0°C° 0 mm 1 m/S 690 mmHg 77%
    22:00 0°C° 0 mm 1 m/S 690 mmHg 77%
    23:00 0°C° 0 mm 1 m/S 690 mmHg 75%

    19 Dezember, Dienstag

    Zeit Temperatur Niederschläge Wind Luftdruck Luftfeuchtigkeit
    00:00 0°C° 0 mm 1 m/S 690 mmHg 74%
    01:00 0°C° 0 mm 1 m/S 690 mmHg 72%
    02:00 0°C° 0 mm 1 m/S 690 mmHg 71%
    03:00 0°C° 0 mm 1 m/S 690 mmHg 70%
    04:00 0°C° 0 mm 1 m/S 690 mmHg 69%
    05:00 -1°C° 0 mm 1 m/S 690 mmHg 68%
    06:00 -1°C° 0 mm 1 m/S 691 mmHg 67%
    07:00 -1°C° 0 mm 1 m/S 691 mmHg 67%
    08:00 +1°C° 0 mm 1 m/S 692 mmHg 61%
    09:00 +2°C° 0 mm 1 m/S 692 mmHg 55%
    10:00 +4°C° 0 mm 1 m/S 693 mmHg 49%
    11:00 +4°C° 0 mm 1 m/S 692 mmHg 48%
    12:00 +5°C° 0 mm 1 m/S 692 mmHg 46%
    13:00 +5°C° 0 mm 1 m/S 692 mmHg 45%
    14:00 +4°C° 0 mm 1 m/S 692 mmHg 50%
    15:00 +3°C° 0 mm 1 m/S 691 mmHg 55%
    16:00 +2°C° 0 mm 1 m/S 691 mmHg 60%
    17:00 +2°C° 0 mm 1 m/S 691 mmHg 62%
    18:00 +1°C° 0 mm 1 m/S 691 mmHg 63%
    19:00 0°C° 0 mm 1 m/S 691 mmHg 65%
    20:00 0°C° 0 mm 1 m/S 691 mmHg 65%
    21:00 0°C° 0 mm 1 m/S 691 mmHg 65%
    22:00 0°C° 0 mm 1 m/S 691 mmHg 65%
    23:00 0°C° 0 mm 1 m/S 691 mmHg 64%

    20 Dezember, Mittwoch

    Zeit Temperatur Niederschläge Wind Luftdruck Luftfeuchtigkeit
    00:00 -3°C° 0 mm 2 m/S 691 mmHg 63%
    01:00 -3°C° 0 mm 2 m/S 691 mmHg 63%
    02:00 -3°C° 0 mm 2 m/S 690 mmHg 62%
    03:00 -1°C° 0 mm 1 m/S 690 mmHg 61%
    04:00 -1°C° 0 mm 1 m/S 690 mmHg 61%
    05:00 -1°C° 0 mm 1 m/S 690 mmHg 61%
    06:00 -1°C° 0 mm 1 m/S 690 mmHg 61%
    07:00 -1°C° 0 mm 1 m/S 690 mmHg 60%
    08:00 +1°C° 0 mm 1 m/S 690 mmHg 56%
    09:00 +2°C° 0 mm 1 m/S 691 mmHg 52%
    10:00 +3°C° 0 mm 1 m/S 691 mmHg 48%
    11:00 +4°C° 0 mm 1 m/S 691 mmHg 47%
    12:00 +4°C° 0 mm 1 m/S 690 mmHg 46%
    13:00 +4°C° 0 mm 1 m/S 690 mmHg 46%
    14:00 +4°C° 0 mm 1 m/S 690 mmHg 51%
    15:00 +3°C° 0 mm 1 m/S 690 mmHg 56%
    16:00 +2°C° 0 mm 1 m/S 689 mmHg 61%
    17:00 -1°C° 0 mm 2 m/S 690 mmHg 65%
    18:00 -2°C° 0 mm 2 m/S 690 mmHg 69%
    19:00 -2°C° 0 mm 2 m/S 690 mmHg 72%
    20:00 -2°C° 0,1 mm 2 m/S 690 mmHg 74%
    21:00 -3°C° 0,1 mm 2 m/S 690 mmHg 76%
    22:00 -3°C° 0,1 mm 2 m/S 691 mmHg 78%
    23:00 -3°C° 0 mm 2 m/S 691 mmHg 78%
    Mehr zeigen